This demonstration page uses our WeatherBlox Daily Observations layout. Learn more.

Left ArrowRight Arrow

Hourly Observations for November 22, 2019

Temp ( °F °C ) Dew Point ( °F °C ) Humidity (%) Winds ( mph kmh ) Pressure ( in mb ) Visibility ( mi km ) Precip ( " mm )
12:15 am 00:15 Mostly Cloudy 50 10 37 3 62 62 SSW 7 11 29.99 1015 10 16.0934 0 0
12:35 am 00:35 Cloudy 48 9 37 3 66 66 S 6 9 29.99 1015 10 16.0934 0 0
12:55 am 00:55 Mostly Cloudy 46 8 37 3 71 71 SSW 6 9 29.98 1015 10 16.0934 0 0
1:15 am 01:15 Partly Cloudy 46 8 37 3 71 71 SSW 3 6 29.97 1015 10 16.0934 0 0
1:35 am 01:35 Mostly Cloudy 46 8 37 3 71 71 SSW 3 6 29.98 1015 10 16.0934 0 0
1:55 am 01:55 Partly Cloudy 46 8 37 3 71 71 Calm 29.97 1015 10 16.0934 0 0
2:15 am 02:15 Partly Cloudy 46 8 37 3 71 71 SSW 3 6 29.97 1015 10 16.0934 0 0
2:35 am 02:35 Mostly Cloudy 46 8 37 3 71 71 Calm 29.96 1015 10 16.0934 0 0
2:55 am 02:55 Mostly Cloudy 46 8 37 3 71 71 S 3 6 29.95 1014 10 16.0934 0 0
3:15 am 03:15 Partly Cloudy 43 6 37 3 81 81 SSE 3 6 29.93 1014 10 16.0934 0 0
3:35 am 03:35 Partly Cloudy 43 6 37 3 81 81 SSW 6 9 29.93 1014 10 16.0934 0 0
3:55 am 03:55 Clear 43 6 37 3 81 81 SSW 5 7 29.92 1013 10 16.0934 0 0
4:15 am 04:15 Clear 41 5 37 3 87 87 SW 3 6 29.92 1013 10 16.0934 0 0
4:35 am 04:35 Clear 41 5 37 3 87 87 SW 3 6 29.91 1013 10 16.0934 0 0
4:55 am 04:55 Clear 43 6 37 3 81 81 SW 5 7 29.9 1013 10 16.0934 0 0
5:15 am 05:15 Partly Cloudy 41 5 37 3 87 87 WSW 5 7 29.91 1013 10 16.0934 0 0
5:35 am 05:35 Mostly Cloudy 43 6 37 3 81 81 Calm 29.9 1013 10 16.0934 0 0
5:55 am 05:55 Mostly Cloudy 41 5 37 3 87 87 Calm 29.9 1013 10 16.0934 0 0
6:15 am 06:15 Mostly Cloudy 43 6 37 3 81 81 WSW 3 6 29.89 1012 10 16.0934 0 0
6:35 am 06:35 Partly Cloudy 45 7 39 4 81 81 SE 3 6 29.88 1012 10 16.0934 0 0
6:55 am 06:55 Clear 43 6 39 4 87 87 SSW 6 9 29.87 1012 10 16.0934 0 0
7:15 am 07:15 Sunny 43 6 39 4 87 87 Calm 29.87 1012 10 16.0934 0 0
7:35 am 07:35 Sunny 43 6 39 4 87 87 Calm 29.88 1012 10 16.0934 0 0
7:55 am 07:55 Mostly Cloudy 45 7 41 5 87 87 Calm 29.87 1012 10 16.0934 0 0
8:15 am 08:15 Partly Cloudy 45 7 41 5 87 87 Calm 29.87 1012 10 16.0934 0 0
8:35 am 08:35 Mostly Cloudy 46 8 41 5 82 82 Calm 29.86 1011 10 16.0934 0 0
8:55 am 08:55 Cloudy 46 8 41 5 82 82 WNW 3 6 29.88 1012 10 16.0934 0 0
9:15 am 09:15 Cloudy 48 9 43 6 82 82 SSW 3 6 29.88 1012 10 16.0934 0 0
9:35 am 09:35 Cloudy 46 8 43 6 87 87 Calm 29.89 1012 10 16.0934 0 0
9:55 am 09:55 Cloudy 46 8 45 7 93 93 Calm 29.88 1012 10 16.0934 0.01 0.254
10:15 am 10:15 Cloudy 46 8 45 7 93 93 SSW 3 6 29.89 1012 10 16.0934 0 0
10:35 am 10:35 Cloudy 46 8 45 7 93 93 Calm 29.89 1012 10 16.0934 0.01 0.254
10:55 am 10:55 Cloudy 46 8 46 8 100 100 SSW 5 7 29.87 1011 10 16.0934 0.02 0.508
11:15 am 11:15 Cloudy 46 8 46 8 100 100 SSW 6 9 29.86 1011 10 16.0934 0 0
11:35 am 11:35 Cloudy 46 8 46 8 100 100 WSW 5 7 29.86 1011 10 16.0934 0 0
11:55 am 11:55 Cloudy 46 8 46 8 100 100 WSW 3 6 29.85 1011 10 16.0934 0 0
12:15 pm 12:15 Cloudy 48 9 48 9 100 100 SW 3 6 29.85 1011 10 16.0934 0 0
12:35 pm 12:35 Cloudy 48 9 48 9 100 100 Calm 29.84 1010 10 16.0934 0 0
12:55 pm 12:55 Cloudy 52 11 50 10 94 94 NW 16 26 29.85 1011 10 16.0934 0 0
1:35 pm 13:35 Cloudy 52 11 43 6 72 72 NW 14 22 29.88 1012 10 16.0934 0 0
1:55 pm 13:55 Cloudy 52 11 39 4 62 62 WNW 18 30 29.86 1011 10 16.0934 0 0
2:15 pm 14:15 Cloudy 52 11 39 4 62 62 NW 16 26 29.86 1011 10 16.0934 0 0
2:35 pm 14:35 Partly Cloudy 52 11 39 4 62 62 NW 18 30 29.88 1012 10 16.0934 0 0
2:55 pm 14:55 Sunny 52 11 37 3 58 58 NW 10 17 29.87 1012 10 16.0934 0 0
3:15 pm 15:15 Sunny 52 11 37 3 58 58 NNW 12 19 29.9 1013 10 16.0934 0 0
3:35 pm 15:35 Sunny 52 11 37 3 58 58 NNW 9 15 29.91 1013 10 16.0934 0 0
3:55 pm 15:55 Sunny 52 11 37 3 58 58 NW 14 22 29.91 1013 10 16.0934 0 0
4:15 pm 16:15 Sunny 50 10 37 3 62 62 NW 15 24 29.94 1014 10 16.0934 0 0
4:35 pm 16:35 Sunny 50 10 36 2 58 58 NNW 9 15 29.94 1014 10 16.0934 0 0
4:55 pm 16:55 Clear 48 9 36 2 62 62 NNW 12 19 29.96 1014 10 16.0934 0 0
5:15 pm 17:15 Clear 46 8 34 1 62 62 NNW 10 17 29.96 1015 10 16.0934 0 0
5:35 pm 17:35 Clear 46 8 32 0 57 57 NNW 15 24 29.98 1015 10 16.0934 0 0
5:55 pm 17:55 Clear 46 8 32 0 57 57 NW 13 20 30 1016 10 16.0934 0 0
6:15 pm 18:15 Clear 45 7 32 0 61 61 NNW 10 17 30.01 1016 10 16.0934 0 0
6:35 pm 18:35 Clear 45 7 32 0 61 61 NNW 7 11 30.03 1017 10 16.0934 0 0
6:55 pm 18:55 Clear 43 6 32 0 66 66 NNW 7 11 30.05 1018 10 16.0934 0 0
7:15 pm 19:15 Clear 43 6 32 0 66 66 NNW 8 13 30.05 1018 10 16.0934 0 0
7:35 pm 19:35 Clear 43 6 32 0 66 66 N 8 13 30.06 1018 10 16.0934 0 0
7:55 pm 19:55 Clear 43 6 32 0 66 66 NNW 9 15 30.07 1018 10 16.0934 0 0
8:15 pm 20:15 Clear 41 5 32 0 70 70 N 7 11 30.08 1019 10 16.0934 0 0
8:35 pm 20:35 Clear 41 5 32 0 70 70 N 6 9 30.09 1019 10 16.0934 0 0
8:55 pm 20:55 Clear 41 5 32 0 70 70 N 12 19 30.09 1019 10 16.0934 0 0
9:15 pm 21:15 Clear 41 5 30 -1 66 66 NNW 9 15 30.1 1019 10 16.0934 0 0
9:35 pm 21:35 Clear 39 4 30 -1 70 70 NNW 7 11 30.11 1019 10 16.0934 0 0
9:55 pm 21:55 Clear 36 2 30 -1 81 81 NW 9 15 30.11 1020 10 16.0934 0 0
10:35 pm 22:35 Clear 37 3 30 -1 75 75 NNW 7 11 30.11 1020 10 16.0934 0 0
10:55 pm 22:55 Clear 37 3 30 -1 75 75 NNW 7 11 30.11 1020 10 16.0934 0 0
11:15 pm 23:15 Clear 37 3 30 -1 75 75 Calm 30.11 1020 10 16.0934 0 0
11:35 pm 23:35 Clear 36 2 30 -1 81 81 Calm 30.12 1020 10 16.0934 0 0
11:55 pm 23:55 Clear 36 2 30 -1 81 81 Calm 30.12 1020 10 16.0934 0 0

Powered by AerisWeather